Ana Sayfa
METAR-TAF:

METAR-TAF

Havaalanları :

Strother Field

Winfield / Arkansas City, Kansas, Amerika Birleşik Devletleri

Enlem: 37-10-05N, Boylam: 097-02-13W, yükseklik: 353 m

Güncel hava durumu gözlemi

Rapor saat 04:54 UTC de 25 dakika önce yapıldı.
Rüzgar güney/güneydoğudan 18 kt ve 27 kt'a kadar ani rüzgarlar
Sıcaklık 23°C
Nem 73%
Basınç 1010 hPa
Görüş mesafesi: 16.1 km
Açık gökyüzü

METAR: KWLD 180454Z AUTO 16018G27KT 10SM CLR 23/18 A2982 RMK AO2 PK WND 16028/0430 SLP085 T02280178

Saat: 00:19 (05:19 UTC)


TAF: eksik

4.000'den fazla havaalanı için hava durumu gözlemleri ve tahminleri (METAR ve TAF raporları).

Kullanılabilir istasyonlar harita üzerinde sarı ve kırmızı noktalarla gösterilir.

İstasyonun adını görmek için fareyi noktanın üzerinde gezdirin.

Sonrasında hava gözlem ve tahminlerini görmek için tıklayın.

Haritayı değiştirmek için: yaklaştırmak için siyah artı işaretli yeşil düğmeye ve uzaklaştırmak için de eksi işaretli düğmeye hızla tıklayın; bitişik haritalar için yeşil okları kullanın.


METAR-TAF: